Location: Sihaung
(22.8641°N, 94.0549°E)
Time: 00:44:57
(UTC+00:00)

Cosmos 614 Rocket - Pass Details

Date: 03 March 2021
Orbit: 734 x 763 km, 74.1° (Epoch: 13 April)

Event Time Altitude Azimuth Distance (km) Brightness Sun altitude
Exits shadow 22:57:47 - 214° (SSW) 2,685 6.5 -15.8°
Reaches altitude 10° 22:58:54 10° 218° (SW) 2,282 6.1 -15.5°
Maximum altitude 23:03:44 40° 287° (WNW) 1,107 4.4 -14.4°
Drops below altitude 10° 23:08:38 10° 357° (N) 2,295 6.4 -13.3°
Sets 23:11:08 0° 4° (N) 3,222 7.3 -12.7°
